TimeEST,TemperatureF,Dew PointF,Humidity,Sea Level PressureIn,VisibilityMPH,Wind Direction,Wind SpeedMPH,Gust SpeedMPH,PrecipitationIn,Events,Conditions,WindDirDegrees,DateUTC
12:56 AM,59.0,55.0,87,29.66,8.0,West,5.8,-,N/A,,Clear,270,2013-02-27 05:56:00
1:56 AM,57.0,51.1,81,29.68,10.0,West,8.1,-,N/A,,Clear,270,2013-02-27 06:56:00
2:56 AM,54.0,48.9,83,29.68,10.0,West,6.9,-,N/A,,Clear,260,2013-02-27 07:56:00
3:56 AM,53.1,45.0,74,29.69,10.0,West,9.2,-,N/A,,Clear,260,2013-02-27 08:56:00
4:56 AM,51.1,42.1,71,29.72,10.0,West,11.5,-,N/A,,Clear,260,2013-02-27 09:56:00
5:56 AM,48.9,39.0,69,29.73,10.0,West,13.8,18.4,N/A,,Clear,260,2013-02-27 10:56:00
6:56 AM,48.9,37.0,64,29.76,10.0,WSW,13.8,19.6,N/A,,Mostly Cloudy,250,2013-02-27 11:56:00
7:56 AM,48.0,37.0,66,29.80,10.0,West,18.4,24.2,N/A,,Mostly Cloudy,260,2013-02-27 12:56:00
8:38 AM,48.2,37.4,66,29.80,10.0,West,15.0,26.5,N/A,,Mostly Cloudy,270,2013-02-27 13:38:00
8:56 AM,48.9,37.0,64,29.81,10.0,West,18.4,29.9,N/A,,Mostly Cloudy,280,2013-02-27 13:56:00
9:27 AM,48.2,37.4,66,29.82,10.0,West,19.6,26.5,N/A,,Mostly Cloudy,270,2013-02-27 14:27:00
9:56 AM,50.0,37.9,63,29.82,10.0,West,15.0,-,N/A,,Mostly Cloudy,260,2013-02-27 14:56:00
10:56 AM,52.0,39.0,61,29.84,10.0,West,13.8,19.6,N/A,,Clear,270,2013-02-27 15:56:00
11:56 AM,54.0,39.9,59,29.82,10.0,WNW,10.4,-,N/A,,Clear,300,2013-02-27 16:56:00
12:56 PM,57.0,39.0,51,29.79,10.0,WSW,8.1,-,N/A,,Scattered Clouds,240,2013-02-27 17:56:00
1:56 PM,59.0,39.0,48,29.78,10.0,West,4.6,-,N/A,,Scattered Clouds,280,2013-02-27 18:56:00
2:56 PM,59.0,37.9,46,29.78,10.0,West,9.2,-,N/A,,Clear,260,2013-02-27 19:56:00
3:56 PM,57.9,39.9,51,29.78,10.0,SW,5.8,-,N/A,,Clear,230,2013-02-27 20:56:00
4:56 PM,57.0,39.0,51,29.77,10.0,WSW,5.8,-,N/A,,Clear,240,2013-02-27 21:56:00
5:56 PM,53.1,43.0,69,29.77,10.0,South,4.6,-,N/A,,Clear,170,2013-02-27 22:56:00
6:56 PM,50.0,43.0,77,29.79,10.0,South,4.6,-,N/A,,Clear,190,2013-02-27 23:56:00
7:56 PM,50.0,41.0,71,29.79,10.0,SW,4.6,-,N/A,,Clear,220,2013-02-28 00:56:00
8:56 PM,48.9,41.0,74,29.79,10.0,SSW,4.6,-,N/A,,Clear,210,2013-02-28 01:56:00
9:56 PM,48.0,41.0,77,29.79,10.0,SW,5.8,-,N/A,,Clear,220,2013-02-28 02:56:00
10:56 PM,46.9,41.0,80,29.78,10.0,SW,5.8,-,N/A,,Clear,220,2013-02-28 03:56:00
11:56 PM,46.9,41.0,80,29.77,10.0,SW,6.9,-,N/A,,Clear,230,2013-02-28 04:56:00